Waukegan, IL

2:17 AM CST on February 09, 2016 (GMT -0600)
Waukegan Regional

Weather History for KUGN - September, 2013

Change the Weather History Date:

Sunday, September 29, 2013

  Actual Average Record
Temperature  
Mean Temperature 55 °F -  
Max Temperature 65 °F 66 °F 82 °F (2002)
Min Temperature 45 °F 47 °F 37 °F (2003)
Degree Days  
Heating Degree Days 10 9  
Month to date heating degree days 129 128  
Since 1 July heating degree days 168 156  
Cooling Degree Days 0 1  
Month to date cooling degree days 93 57  
Year to date cooling degree days 583 559  
Growing Degree Days 5 (Base 50)    
Moisture  
Dew Point 51 °F    
Average Humidity 72    
Maximum Humidity 100    
Minimum Humidity 44    
Precipitation  
Precipitation 0.09 in 0.13 in 0.66 in (2002)
Month to date precipitation 2.57 3.33  
Year to date precipitation 24.41 27.78  
Sea Level Pressure  
Sea Level Pressure 30.00 in    
Wind  
Wind Speed 3 mph (NNW)    
Max Wind Speed 15 mph    
Max Gust Speed 24 mph    
Visibility 7 miles    
Events Rain    
T = Trace of Precipitation, MM = Missing Value Source: NWS Daily Summary

Daily Weather History Graph

Daily Weather History Graph

Search for Another Location

Airport or City:

Trip Planner

Search our weather history database for the weather conditions in past years. The results will help you decide how hot, cold, wet, or windy it might be!

Date:

Astronomy

Sep. 29, 2013 Rise Set
Actual Time 6:46 AM CDT 6:35 PM CDT
Civil Twilight 6:18 AM CDT 7:03 PM CDT
Nautical Twilight 5:45 AM CDT 7:36 PM CDT
Astronomical Twilight 5:12 AM CDT 8:09 PM CDT
Moon 1:22 AM CDT (9/29) 3:36 PM CDT (9/29)
Length of Visible Light 12h 45m
Length of Day
11h 49m
Waning Crescent, 27% of the Moon is Illuminated
Sep 29
Waning Crescent
Oct 4
New
Oct 11
First Quarter
Oct 18
Full
Oct 26
Last Quarter

Hourly Weather History & Observations

Time (CDT) Temp. Dew Point Humidity Pressure Visibility Wind Dir Wind Speed Gust Speed Precip Events Conditions
12:10 AM 62.6 °F 60.8 °F 94% 29.93 in 5.0 mi WNW 9.2 mph - 0.02 in Rain Light Rain
12:18 AM 60.8 °F 60.8 °F 100% 29.93 in 3.0 mi WNW 5.8 mph - 0.04 in Rain Rain
12:25 AM 60.8 °F 60.8 °F 100% 29.94 in 2.5 mi WNW 4.6 mph - 0.06 in Rain Rain
12:44 AM 60.8 °F 60.8 °F 100% 29.95 in 4.0 mi NW 11.5 mph 18.4 mph 0.11 in Rain Light Rain
12:52 AM 60.1 °F 57.9 °F 93% 29.93 in 5.0 mi NW 10.4 mph 19.6 mph 0.11 in Rain Light Rain
1:06 AM 59.0 °F 57.2 °F 94% 29.95 in 3.0 mi NW 5.8 mph - 0.03 in Rain Light Rain
1:16 AM 57.2 °F 57.2 °F 100% 29.96 in 4.0 mi NW 15.0 mph 24.2 mph 0.04 in Rain Rain
1:25 AM 55.4 °F 53.6 °F 94% 29.97 in 5.0 mi NW 11.5 mph 24.2 mph 0.05 in Rain Light Rain
1:33 AM 55.4 °F 53.6 °F 94% 29.98 in 3.0 mi NW 8.1 mph 20.7 mph 0.06 in Rain Light Rain
1:52 AM 54.0 °F 53.1 °F 97% 29.96 in 9.0 mi Variable 6.9 mph - 0.09 in Rain Light Rain
2:52 AM 55.0 °F 54.0 °F 96% 29.96 in 10.0 mi WNW 4.6 mph - 0.02 in   Overcast
3:52 AM 53.1 °F 53.1 °F 100% 29.97 in 10.0 mi Calm Calm - N/A   Clear
4:52 AM 52.0 °F 52.0 °F 100% 29.99 in 9.0 mi Calm Calm - N/A   Clear
5:52 AM 51.1 °F 50.0 °F 96% 30.00 in 5.0 mi Calm Calm - N/A   Clear
6:52 AM 50.0 °F 50.0 °F 100% 30.01 in 2.5 mi Calm Calm - N/A   Clear
7:01 AM 50.0 °F 48.2 °F 94% 30.03 in 1.8 mi Calm Calm - N/A   Clear
7:10 AM 50.0 °F 50.0 °F 100% 30.03 in 3.0 mi West 3.5 mph - N/A   Clear
7:52 AM 52.0 °F 51.1 °F 97% 30.02 in 8.0 mi WNW 3.5 mph - 0.01 in   Clear
8:52 AM 55.9 °F 52.0 °F 87% 30.02 in 10.0 mi WNW 3.5 mph - N/A   Clear
9:52 AM 57.9 °F 51.1 °F 78% 30.04 in 10.0 mi North 6.9 mph - N/A   Clear
10:52 AM 60.1 °F 50.0 °F 69% 30.05 in 10.0 mi North 6.9 mph - N/A   Clear
11:52 AM 62.1 °F 46.9 °F 58% 30.04 in 10.0 mi NE 5.8 mph - N/A   Clear
12:52 PM 64.0 °F 46.0 °F 52% 30.04 in 10.0 mi ENE 8.1 mph - N/A   Clear
1:52 PM 64.0 °F 42.1 °F 45% 30.03 in 10.0 mi NNE 6.9 mph - N/A   Clear
2:52 PM 64.0 °F 44.1 °F 48% 30.02 in 10.0 mi NNE 8.1 mph - N/A   Clear
3:52 PM 64.0 °F 46.0 °F 52% 30.01 in 10.0 mi ENE 6.9 mph - N/A   Clear
4:52 PM 63.0 °F 46.9 °F 56% 30.01 in 10.0 mi East 5.8 mph - N/A   Clear
5:52 PM 61.0 °F 50.0 °F 67% 30.01 in 10.0 mi East 3.5 mph - N/A   Clear
6:52 PM 53.1 °F 50.0 °F 89% 30.01 in 10.0 mi Calm Calm - N/A   Clear
7:52 PM 50.0 °F 48.0 °F 93% 30.02 in 10.0 mi Calm Calm - N/A   Clear
8:52 PM 48.0 °F 46.9 °F 96% 30.02 in 9.0 mi Calm Calm - N/A   Clear
9:52 PM 48.0 °F 46.9 °F 96% 30.01 in 5.0 mi Calm Calm - N/A   Clear
10:52 PM 46.9 °F 46.0 °F 97% 30.01 in 4.0 mi Calm Calm - N/A   Clear
11:52 PM 50.0 °F 48.0 °F 93% 30.01 in 10.0 mi West 4.6 mph - N/A   Clear